Find Starlink 6173

NORAD ID: 56385 Int'l Des: 2023-061 Owner: SPXS Country: US Constellation: starlink operational
LEOCIRCULAR

現在のビュー

3D地球を読み込み中...

About Starlink 6173

Starlink 6173 (NORAD 56385) is a starlink constellation satellite (v1.5) launched May 4, 2023 by SPXS of US. It operates in LEO, CIRCULAR orbit with a mass of 305.00 kg.

次回通過

Passes for default location (London). Set your location on the main map for personalized predictions.

高度履歴

Loading altitude history...

軌道要素

1 56385U 23061M 26264.03011288 .00000091 00000-0 12832-4 0 9992
2 56385 43.0017 174.7883 0001259 263.9536 96.1172 15.27576640186625
Epoch: Sep 21, 2026 • Age: 12 hours

現在のステータス

高度 482.3 km
遠地点 / 近地点 N/A
速度 7.63 km/s
衛星直下点 8.97°N, 155.43°E
打ち上げ日 May 4, 2023
運用期間 3.3 years
タイプ internet

技術仕様

分類 Payload
質量 305.00 kg
乾燥質量 290.00 kg
長さ 0.20 m
スパン 9.00 m
形状 ? Box + pan
製造者 SPXS
バスタイプ Starlink
フェーズステータス In Orbit
所有者/国 SPXS/US

Most Searched